Regional Weather Roundup
Issued by NWS

Home | Current Version | Previous Version | Graphics & Text | Print | Product List | Glossary On
Versions: 1 2 3 4 5 6 7 8 9 10 11 12 13 14 15 16 17 18 19 20 21 22 23 24 25 26 27 28 29 30 31 32 33 34 35 36 37 38 39 40 41 42 43 44 45 46 47 48 49 50
000
ASUS44 KMEG 300010
RWRTN
TENNESSEE HOURLY STATE WEATHER ROUNDUP
NATIONAL WEATHER SERVICE MEMPHIS TN
700 PM CDT MON AUG 29 2016

TNZ002-004-019-021-049-052-054-088>092-300100-
WEST TENNESSEE

CITY           SKY/WX    TMP DP  RH WIND       PRES   REMARKS
MEMPHIS INTL   MOCLDY    90  71  53 E8        30.02S HX  96
NWS MEMPHIS      N/A     85 N/A N/A MISG        N/A
JACKSON        CLEAR     85  77  77 E6        30.05R HX  95
DYERSBURG      CLEAR     86  75  70 MISG      30.03S HX  95
UNION CITY     CLEAR     88  77  70 E5        30.05R HX 100
PARIS          CLEAR     82  75  78 NE3       30.07S
LEXINGTON      CLEAR     84  75  74 N3        30.05R HX  92
$$

TNZ008-025-027-028-033-062-065-066-300100-
NORTH MIDDLE TENNESSEE

CITY           SKY/WX    TMP DP  RH WIND       PRES   REMARKS
NASHVILLE      PTCLDY    87  71  58 NE7       30.07F HX  93
CLARKSVILLE    CLEAR     85  73  67 NE7       30.07S HX  91
SMYRNA         CLEAR     88  73  62 MISG      30.07F HX  96
COOKEVILLE     CLEAR     84  73  70 NE5       30.09S HX  91
CROSSVILLE     CLEAR     81  69  67 NE5       30.15S
$$

TNZ061-075-076-078-094-096-097-300100-
SOUTH MIDDLE TENNESSEE

CITY           SKY/WX    TMP DP  RH WIND       PRES   REMARKS
FAYETTEVILLE   PTCLDY    84  72  65 NE5       30.06S
TULLAHOMA      CLEAR     84  66  54 NE6       30.09S
WINCHESTER     CLEAR     84  70  61 NE7       30.07S
MCMINNVILLE    CLEAR     84  73  70 N6        30.09S HX  91
COLUMBIA       CLEAR     84  73  70 NE3       30.04F HX  91
SHELBYVILLE    CLEAR     84  73  70 NE6       30.07S HX  91
$$

TNZ017-018-042-046-047-300100-
NORTHEAST TENNESSEE

CITY           SKY/WX    TMP DP  RH WIND       PRES   REMARKS
TRI CITIES     MOCLDY    82  67  60 N7        30.14R THUNDER
ELIZABETHTON   PTCLDY    75  70  83 CALM      30.13R
$$

TNZ012-013-036-069-073-074-300100-
CENTRAL EAST TENNESSEE

CITY           SKY/WX    TMP DP  RH WIND       PRES   REMARKS
KNOXVILLE      PTCLDY    87  58  37 NE6       30.08R
GATLINBURG     CLEAR     82  61  47 SE3       30.09R
MORRISTOWN     CLEAR     84  64  51 NE7       30.11S
$$

TNZ083-085-099-300100-
SOUTHEAST TENNESSEE

CITY           SKY/WX    TMP DP  RH WIND       PRES   REMARKS
CHATTANOOGA    PTCLDY    89  64  43 N8        30.05S HX  90
$$

SKY/WX REPORTED AS FAIR MEANS FEW OR NO CLOUDS BELOW
12 THOUSAND FEET.





USA.gov is the U.S. government's official web portal to all federal, state and local government web resources and services.